| time (UTC) | temp C | wind direction | speed KPH | gust KPH | rain 1hr cm | rain 24hr cm | rain mn cm | humidity % | barometer mb |
| 20260506200038 | 15 | 155 | 1.6 | 8.0 | 0.00 | 0.00 | 0.00 | 90 | 1007.6 |
| 20260506194536 | 15 | 261 | 3.2 | 9.7 | 0.00 | 0.00 | 0.00 | 87 | 1007.8 |
| 20260506193036 | 16 | 136 | 0.0 | 4.8 | 0.00 | 0.00 | 0.00 | 84 | 1007.8 |
| 20260506191535 | 16 | 277 | 1.6 | 9.7 | 0.00 | 0.00 | 0.00 | 79 | 1007.8 |
| 20260506190035 | 17 | 235 | 1.6 | 14.5 | 0.00 | 0.00 | 0.00 | 78 | 1008.0 |
| 20260506184535 | 17 | 289 | 1.6 | 9.7 | 0.00 | 0.00 | 0.00 | 76 | 1007.8 |
| 20260506183033 | 17 | 204 | 3.2 | 12.9 | 0.00 | 0.00 | 0.00 | 75 | 1008.0 |
| 20260506181539 | 18 | 134 | 3.2 | 11.3 | 0.00 | 0.00 | 0.00 | 74 | 1008.1 |
| 20260506180033 | 18 | 140 | 1.6 | 14.5 | 0.00 | 0.00 | 0.00 | 74 | 1008.2 |
| 20260506174532 | 18 | 211 | 3.2 | 14.5 | 0.00 | 0.00 | 0.00 | 73 | 1008.5 |
| 20260506173027 | 18 | 59 | 3.2 | 19.3 | 0.00 | 0.00 | 0.00 | 73 | 1008.9 |
| 20260506171538 | 19 | 22 | 3.2 | 19.3 | 0.00 | 0.00 | 0.00 | 71 | 1008.8 |
| 20260506170025 | 20 | 292 | 1.6 | 16.1 | 0.00 | 0.00 | 0.00 | 72 | 1008.7 |
| 20260506164524 | 19 | 144 | 8.0 | 29.0 | 0.00 | 0.00 | 0.00 | 70 | 1009.1 |
| 20260506163023 | 19 | 67 | 1.6 | 11.3 | 0.00 | 0.00 | 0.00 | 71 | 1009.2 |
| 20260506161520 | 19 | 36 | 3.2 | 14.5 | 0.00 | 0.00 | 0.00 | 70 | 1009.3 |
| 20260506160020 | 20 | 205 | 4.8 | 16.1 | 0.00 | 0.00 | 0.00 | 69 | 1009.5 |
| 20260506154519 | 20 | 140 | 3.2 | 17.7 | 0.00 | 0.00 | 0.00 | 70 | 1009.7 |
| 20260506153016 | 19 | 252 | 4.8 | 16.1 | 0.00 | 0.00 | 0.00 | 71 | 1010.0 |
| 20260506151518 | 18 | 244 | 1.6 | 16.1 | 0.00 | 0.00 | 0.00 | 73 | 1009.9 |
| 20260506150012 | 18 | 211 | 4.8 | 12.9 | 0.00 | 0.00 | 0.00 | 73 | 1010.0 |
| 20260506144510 | 18 | 202 | 3.2 | 19.3 | 0.00 | 0.00 | 0.00 | 72 | 1010.0 |
| 20260506143010 | 18 | 319 | 3.2 | 14.5 | 0.00 | 0.00 | 0.00 | 72 | 1009.8 |
| 20260506141508 | 18 | 327 | 1.6 | 17.7 | 0.00 | 0.00 | 0.00 | 73 | 1010.0 |
| 20260506140016 | 18 | 197 | 3.2 | 14.5 | 0.00 | 0.00 | 0.00 | 74 | 1009.7 |
| 20260506134504 | 18 | 162 | 1.6 | 12.9 | 0.00 | 0.03 | 0.00 | 75 | 1010.0 |
| 20260506133102 | 17 | 293 | 0.0 | 8.0 | 0.00 | 0.03 | 0.00 | 78 | 1010.4 |
| 20260506131612 | 16 | 309 | 3.2 | 11.3 | 0.00 | 0.03 | 0.00 | 80 | 1010.5 |
| 20260506130056 | 16 | 109 | 3.2 | 12.9 | 0.00 | 0.03 | 0.00 | 81 | 1010.6 |
| 20260506124550 | 15 | 256 | 1.6 | 6.4 | 0.00 | 0.18 | 0.00 | 82 | 1010.6 |
| 20260506123052 | 15 | 155 | 3.2 | 14.5 | 0.00 | 0.18 | 0.00 | 83 | 1010.6 |
| 20260506121550 | 15 | 283 | 1.6 | 4.8 | 0.00 | 0.18 | 0.00 | 85 | 1010.5 |
| 20260506120050 | 15 | 73 | 0.0 | 11.3 | 0.00 | 0.18 | 0.00 | 85 | 1010.9 |
| 20260506114551 | 15 | 159 | 0.0 | 6.4 | 0.00 | 0.18 | 0.00 | 86 | 1010.8 |
| 20260506113041 | 14 | 128 | 1.6 | 8.0 | 0.00 | 0.18 | 0.00 | 88 | 1011.0 |
| 20260506111539 | 13 | 196 | 1.6 | 6.4 | 0.00 | 0.18 | 0.00 | 89 | 1011.0 |
| 20260506110038 | 13 | 153 | 0.0 | 8.0 | 0.00 | 0.18 | 0.00 | 89 | 1010.9 |
| 20260506104538 | 13 | 136 | 1.6 | 6.4 | 0.00 | 0.18 | 0.00 | 89 | 1010.9 |
| 20260506103035 | 13 | 87 | 1.6 | 6.4 | 0.00 | 0.18 | 0.00 | 90 | 1010.9 |
| 20260506101533 | 13 | 188 | 1.6 | 8.0 | 0.00 | 0.18 | 0.00 | 90 | 1010.9 |
| 20260506100032 | 13 | 331 | 0.0 | 6.4 | 0.00 | 0.18 | 0.00 | 90 | 1010.7 |
| 20260506094529 | 13 | 101 | 0.0 | 6.4 | 0.00 | 0.18 | 0.00 | 89 | 1010.6 |
| 20260506093028 | 13 | 217 | 0.0 | 12.9 | 0.00 | 0.18 | 0.00 | 89 | 1010.6 |
| 20260506091527 | 13 | 153 | 0.0 | 6.4 | 0.00 | 0.18 | 0.00 | 89 | 1010.7 |
| 20260506090026 | 13 | 171 | 0.0 | 6.4 | 0.00 | 0.18 | 0.00 | 89 | 1010.6 |
| 20260506084525 | 13 | 76 | 1.6 | 11.3 | 0.00 | 0.18 | 0.00 | 88 | 1010.8 |
| 20260506083024 | 13 | 74 | 0.0 | 4.8 | 0.00 | 0.18 | 0.00 | 88 | 1010.8 |
| 20260506081523 | 13 | 152 | 1.6 | 9.7 | 0.00 | 0.18 | 0.00 | 88 | 1010.9 |
| 20260506073021 | 13 | 235 | 0.0 | 9.7 | 0.00 | 0.18 | 0.00 | 86 | 1010.8 |
| 20260506071520 | 13 | 227 | 0.0 | 4.8 | 0.00 | 0.18 | 0.00 | 85 | 1010.7 |
| 20260506061517 | 14 | 147 | 0.0 | 6.4 | 0.00 | 0.18 | 0.00 | 83 | 1010.6 |
| 20260506044515 | 13 | 110 | 1.6 | 8.0 | 0.00 | 0.18 | 0.00 | 82 | 1011.2 |
| 20260506043008 | 13 | 80 | 1.6 | 8.0 | 0.00 | 0.18 | 0.00 | 81 | 1011.2 |
| 20260506041505 | 14 | 159 | 1.6 | 6.4 | 0.00 | 0.18 | 0.00 | 80 | 1011.2 |
| 20260506040003 | 14 | 110 | 3.2 | 9.7 | 0.00 | 0.18 | 0.00 | 79 | 1011.1 |
| 20260506034501 | 14 | 138 | 1.6 | 8.0 | 0.00 | 0.18 | 0.18 | 78 | 1011.0 |
| 20260506033001 | 14 | 57 | 1.6 | 6.4 | 0.00 | 0.18 | 0.18 | 78 | 1011.0 |
| 20260506031604 | 14 | 127 | 3.2 | 8.0 | 0.00 | 0.18 | 0.18 | 77 | 1010.9 |
| 20260506030116 | 14 | 155 | 1.6 | 8.0 | 0.00 | 0.18 | 0.18 | 76 | 1011.0 |
| 20260506024600 | 14 | 159 | 1.6 | 8.0 | 0.00 | 0.18 | 0.18 | 76 | 1010.9 |
| 20260506023059 | 14 | 233 | 1.6 | 14.5 | 0.00 | 0.18 | 0.18 | 75 | 1010.9 |
| 20260506021603 | 14 | 224 | 1.6 | 6.4 | 0.00 | 0.18 | 0.18 | 75 | 1010.9 |
| 20260506020058 | 15 | 134 | 1.6 | 9.7 | 0.00 | 0.18 | 0.18 | 75 | 1010.9 |
| 20260506014607 | 15 | 224 | 1.6 | 8.0 | 0.00 | 0.18 | 0.18 | 75 | 1010.8 |
| 20260506013056 | 15 | 110 | 1.6 | 6.4 | 0.00 | 0.18 | 0.18 | 75 | 1010.7 |
| 20260506011556 | 15 | 154 | 1.6 | 14.5 | 0.00 | 0.18 | 0.18 | 75 | 1010.6 |
| 20260506010104 | 14 | 129 | 1.6 | 6.4 | 0.00 | 0.18 | 0.18 | 76 | 1010.5 |
| 20260506004555 | 14 | 154 | 3.2 | 11.3 | 0.00 | 0.18 | 0.18 | 76 | 1010.5 |
| 20260506003054 | 14 | 123 | 0.0 | 4.8 | 0.00 | 0.18 | 0.18 | 76 | 1010.3 |
| 20260506001558 | 15 | 146 | 1.6 | 9.7 | 0.00 | 0.18 | 0.18 | 75 | 1010.0 |
| 20260506000058 | 15 | 238 | 1.6 | 8.0 | 0.00 | 0.18 | 0.18 | 74 | 1009.6 |
| 20260505234552 | 15 | 115 | 0.0 | 6.4 | 0.00 | 0.18 | 0.18 | 73 | 1009.7 |
| 20260505233103 | 15 | 148 | 1.6 | 9.7 | 0.00 | 0.18 | 0.18 | 73 | 1009.2 |
| 20260505231552 | 15 | 124 | 1.6 | 6.4 | 0.00 | 0.18 | 0.18 | 72 | 1009.0 |
| 20260505230052 | 16 | 61 | 3.2 | 12.9 | 0.00 | 0.18 | 0.18 | 72 | 1008.6 |
| 20260505224650 | 16 | 175 | 0.0 | 6.4 | 0.00 | 0.18 | 0.18 | 72 | 1008.6 |
| 20260505223051 | 16 | 184 | 0.0 | 8.0 | 0.00 | 0.18 | 0.18 | 70 | 1008.6 |
| 20260505220048 | 17 | 11 | 3.2 | 8.0 | 0.00 | 0.18 | 0.18 | 67 | 1008.5 |
| 20260505214547 | 18 | 158 | 4.8 | 9.7 | 0.00 | 0.18 | 0.18 | 65 | 1008.3 |
| 20260505213048 | 18 | 163 | 1.6 | 12.9 | 0.00 | 0.18 | 0.18 | 64 | 1008.2 |
| 20260505211547 | 19 | 163 | 3.2 | 9.7 | 0.00 | 0.18 | 0.18 | 63 | 1008.2 |
| 20260505210045 | 19 | 213 | 1.6 | 16.1 | 0.00 | 0.18 | 0.18 | 62 | 1007.9 |
| 20260505204544 | 20 | 138 | 1.6 | 9.7 | 0.00 | 0.18 | 0.18 | 61 | 1008.1 |
| 20260505203049 | 20 | 144 | 3.2 | 17.7 | 0.00 | 0.18 | 0.18 | 59 | 1008.2 |
| 20260505201546 | 21 | 167 | 4.8 | 9.7 | 0.00 | 0.18 | 0.18 | 58 | 1008.2 |